Location: Kaarina
(60.4167°N, 22.4167°E)
Time: 21:08:18
(UTC+03:00)

Aureole 3 Rocket - Pass Details

Date: 24 August 2019
Orbit: 399 x 1741 km, 82.5° (Epoch: 13 October)

Event Time Altitude Azimuth Distance (km) Brightness Sun altitude
Rises 22:04:24 0° 183° (S) 2,492 5.8 -7.6°
Reaches altitude 10° 22:06:33 10° 180° (S) 1,536 4.7 -7.8°
Maximum altitude 22:09:42 58° 100° (E) 479 2.2 -8.1°
Drops below altitude 10° 22:12:43 10° 20° (NNE) 1,477 5.3 -8.4°
Sets 22:14:46 0° 17° (NNE) 2,384 6.4 -8.6°
